User: anonymous   Login
Location: Sabalos
(43.2860°N, 0.1414°E)
Time: 12:42:34
(UTC+00:00)
Language:

Cosmos 2333 Rocket - Orbit

View from above orbital plane
View from above orbital plane
View from above satellite
View from above satellite

Ground track
Ground track

The orbit data is extracted from the following two-line orbital elements,

1 24298U 96051B   20274.67856750 -.00000127 +00000-0 -42254-4 0  9998
2 24298 070.8436 048.7064 0017852 204.1326 155.8959 14.12494977241215
Epoch (UTC): 30 September 2020 16:17:08
Eccentricity: 0.0017852
inclination: 70.8436°
perigee height: 838 km
apogee height: 864 km
right ascension of ascending node: 48.7064°
argument of perigee: 204.1326°
revolutions per day: 14.12494977
mean anomaly at epoch: 155.8959°
orbit number at epoch: 24121

The dashed part of the orbit path shows where the satellite is in the earth's shadow,  

DLR